Location: Newark
(34.6501°N, 117.8502°W)
Time: 11:44:32
(UTC+00:00)

X-37B - Visible Passes

Search period start: 21 September 2021 00:00
Search period end: 01 October 2021 00:00
Orbit: 381 x 393 km, 45.0° (Epoch: 29 August)

Date Brightness Start Highest point End Pass type
(mag) Time Alt. Az. Time Alt. Az. Time Alt. Az.
21 Sep 1.1 11:59:47 57° ESE 11:59:47 57° ESE 12:02:35 10° ENE visible
22 Sep 1.6 12:36:33 24° WNW 12:37:45 33° NNW 12:40:40 10° NE visible
23 Sep 2.8 11:40:58 24° NE 11:40:58 24° NE 11:42:25 10° NE visible
23 Sep 2.8 13:14:18 10° NW 13:16:23 16° NNW 13:18:28 10° NNE visible
24 Sep 2.3 12:17:36 21° NNW 12:17:46 21° NNW 12:20:17 10° NE visible
25 Sep 4.0 11:21:55 11° NE 11:21:55 11° NE 11:22:07 10° NE visible
25 Sep 3.1 12:54:52 10° NW 12:56:31 13° N 12:58:11 10° NNE visible
26 Sep 3.1 11:58:29 15° N 11:58:29 15° N 11:59:55 10° NNE visible
27 Sep 3.2 12:35:14 10° NNW 12:36:41 13° N 12:38:09 10° NNE visible
28 Sep 3.7 11:39:20 11° NNE 11:39:20 11° NNE 11:39:38 10° NNE visible
28 Sep 3.1 13:13:31 10° NNW 13:15:32 16° NNE 13:17:33 10° NE visible
29 Sep 3.2 12:15:56 12° NNW 12:16:52 13° N 12:18:29 10° NE visible
30 Sep 2.8 12:53:10 10° NNW 12:55:38 20° NNE 12:58:05 10° ENE visible
